www.pogodaiklimat.ru

Погода и климат >> Архив погоды >> Пакистан >> Навабшах


ПОГОДА в Навабшахе

  • Прогноз погоды в Навабшахе
  • Монитор погоды в Навабшахе

АРХИВ ПОГОДЫ в Навабшахе

Время (UTC), дата Ветер
(напр.,м/с)
 
Видим.   Явления Облачность Т
(С)
Тd
(С)
f
(%)
Тe
(С)
Тes
(С)
Комфортность P
(гПа)
Po
(гПа)
Тmin
(С)
Tmax
(С)
R
(мм)
R24
(мм)
S
(см)
06 15.08 Ю 5 4000 м 9/4 1050 м
[Sc Ac trans]
+31.0 +22.3 60 +40 +43 очень
душно
1002.4 999.1
09 15.08 Ю 3 4000 м 8/3 1050 м
[Sc Ac trans]
+34.0 +23.3 54 +45 +51 опасность
перегрева
1000.9 996.7
12 15.08 ЮВ 2 4000 м 9/4 1050 м
[Sc Ac trans]
+35.0 +23.7 52 +46 +47 опасность
перегрева
999.8 996.6 +36.1
15 15.08 ЮВ 3 4000 м мгла 9/4 1050 м
[Sc Ac trans]
+32.0 +23.4 60 +43 +43 опасность
перегрева
1000.5 1000.0
18 15.08 ЮВ 4 4000 м мгла 9/4 1050 м
[Sc Ac trans]
+31.0 +23.9 66 +43 +43 опасность
перегрева
1001.8 998.6
21 15.08 ЮВ 2 4000 м мгла 8/3 1050 м
[Sc Ac trans]
+29.0 +23.2 71 +39 +39 очень
душно
1000.7 1000.0
00 16.08 ЮВ 3 4000 м мгла 8/5 300 м
[Sc Ac trans]
+28.0 +22.1 70 +36 +36 очень
душно
999.9 996.7
03 16.08 ЮВ 2 4000 м мгла 6/0
[Ac trans Ci fib]
+29.0 +21.6 64 +37 +40 очень
душно
999.6 996.4 +27.5
06 16.08 ЮВ 2 4000 м 6/0
[Ac trans Ci fib]
+34.0 +24.9 59 +47 +62 опасность
перегрева
1000.6 997.4
09 16.08 ЮВ 2 4000 м 6/3 1050 м
[Sc Ac trans]
+37.0 +24.4 49 +49 +58 опасность
перегрева
998.4 1000.0
12 16.08 ЮВ 3 4000 м 9/4 1050 м
[Sc Ac trans]
+37.0 +25.2 51 +51 +51 опасность
перегрева
995.5 992.4 +38.5
15 16.08 ЮВ 3 4000 м мгла 6/3 1050 м
[Sc Ac trans]
+33.0 +24.6 61 +46 +46 опасность
перегрева
996.9 1000.0
18 16.08 Ю 3 4000 м мгла 5/1 1050 м
[Sc Ac trans]
+30.5 +24.1 69 +42 +42 опасность
перегрева
998.3 995.1
21 16.08 Ю 3 4000 м мгла 8/3 1050 м
[Sc Ac trans]
+28.5 +23.5 74 +39 +39 очень
душно
997.7 1000.0
00 17.08 ЮВ 2 4000 м мгла 6/3 1050 м
[Sc Ac trans]
+28.0 +23.7 77 +38 +38 очень
душно
997.1 993.9
03 17.08 Ю 3 4000 м 5/0
[Ac trans]
+29.5 +23.8 71 +40 +43 очень
душно
998.6 995.4 +27.1
06 17.08 ЮВ 5 4000 м 4/0
[Ac trans]
+24.5 +25.5 100 +34 +41 очень
душно
999.3 996.1
09 17.08 Ю 2 4000 м 5/1 900 м
[Sc Ac trans]
+38.0 +24.8 47 +51 +60 опасность
перегрева
997.9 1000.0
12 17.08 ЮВ 2 4000 м 4/0
[Ac trans]
+37.0 +24.4 49 +49 +52 опасность
перегрева
996.3 993.3 +39.1
15 17.08 ЮВ 2 4000 м ясно +34.0 +24.1 56 +46 +46 опасность
перегрева
997.8 1000.0
18 17.08 ЮВ 2 4000 м ясно +32.0 +25.0 67 +46 +46 опасность
перегрева
999.0 995.8
21 17.08 ЮВ 3 4000 м мгла ясно +30.5 +25.6 75 +45 +45 опасность
перегрева
998.3 994.0
00 18.08 ЮВ 2 4000 м мгла ясно +28.5 +24.2 78 +40 +40 очень
душно
998.3 995.1
03 18.08 Ю 4 4000 м ясно +30.0 +23.5 68 +41 +43 опасность
перегрева
1000.2 997.0 +27.5
06 18.08 ЮЗ 3 4000 м ясно +34.0 +24.1 56 +46 +61 опасность
перегрева
1002.6 999.4
09 18.08 ЮЗ 3 4000 м ясно +38.0 +24.0 45 +49 +65 опасность
перегрева
1000.8 1000.0
12 18.08 Ю 5 4000 м ясно +38.0 +24.8 47 +51 +53 опасность
перегрева
999.6 996.5 +39.5
15 18.08 ЮВ 4 4000 м ясно +32.5 +24.0 61 +44 +44 опасность
перегрева
1000.7 1000.0
18 18.08 Ю 4 4000 м ясно +30.0 +23.5 68 +41 +41 опасность
перегрева
1001.7 998.5
21 18.08 Ю 3 4000 м ясно +28.5 +22.7 71 +38 +38 очень
душно
1000.6 1000.0
00 19.08 ЮВ 2 4000 м ясно +27.0 +22.6 77 +36 +36 очень
душно
999.7 996.5
03 19.08 Ю 6 4000 м ясно +29.0 +24.0 74 +40 +42 очень
душно
1002.6 999.4 +26.5
06 19.08 Ю 4 4000 м ясно +34.5 +24.7 57 +48 +61 опасность
перегрева
1004.9 1001.7
09 19.08 Ю 4 4000 м 3/3 1050 м
[Sc]
+38.5 +24.5 45 +50 +60 опасность
перегрева
1003.8 1000.0
12 19.08 ЮВ 4 4000 м ясно +37.5 +25.0 49 +51 +53 опасность
перегрева
1002.7 999.6 +39.3
15 19.08 ЮВ 7 4000 м мгла 4/0
[Ac trans]
+32.0 +25.0 67 +46 +46 опасность
перегрева
1003.7 999.4
18 19.08 ЮВ 3 4000 м мгла ясно +30.0 +24.3 72 +42 +42 опасность
перегрева
1004.7 1001.5
21 19.08 Ю 3 4000 м мгла ясно +28.5 +23.5 74 +39 +39 очень
душно
1003.7 1000.0
00 20.08 ЮВ 4 4000 м мгла ясно +28.0 +23.7 77 +38 +38 очень
душно
1002.7 999.5
03 20.08 Ю 3 4000 м ясно +29.0 +24.0 74 +40 +44 очень
душно
1004.7 1001.5 +27.1
06 20.08 Ю 3 4000 м ясно +34.0 +24.9 59 +47 +62 опасность
перегрева
1006.6 1003.3
09 20.08 Ю 3 4000 м 1/1 1050 м
[Sc]
+37.0 +25.2 51 +51 +65 опасность
перегрева
1004.9 1000.0
12 20.08 Ю 3 4000 м ясно +37.0 +25.2 51 +51 +54 опасность
перегрева
1002.5 999.4 +38.5
15 20.08 ЮВ 5 4000 м мгла 3/3 1050 м
[Sc]
+32.5 +25.5 67 +47 +47 опасность
перегрева
1002.5 998.2
18 20.08 ЮВ 3 4000 м мгла ясно +31.0 +24.6 69 +44 +44 опасность
перегрева
1004.2 1001.0
21 20.08 ЮВ 2 4000 м мгла ясно +29.5 +24.5 75 +42 +42 опасность
перегрева
1003.1 1000.0
00 21.08 Ю 2 4000 м мгла ясно +27.5 +23.1 77 +37 +37 очень
душно
1002.0 998.8
03 21.08 ЮВ 2 4000 м мгла ясно +28.5 +23.5 74 +39 +43 очень
душно
1003.0 999.8 +26.5
06 21.08 Ю 3 4000 м ясно +36.0 +24.0 50 +47 +62 опасность
перегрева
1003.8 1000.6
09 21.08 Ю 2 4000 м ясно +39.0 +24.4 44 +51 +68 опасность
перегрева
1002.1 1000.0
12 21.08 Ю 4 4000 м ясно +39.0 +25.2 46 +52 +55 опасность
перегрева
1000.9 997.9 +41.5
15 21.08 Ю 3 4000 м мгла ясно +34.0 +25.7 62 +49 +49 опасность
перегрева
1001.6 1000.0
18 21.08 Ю 2 4000 м мгла ясно +31.0 +25.4 72 +45 +45 опасность
перегрева
1002.2 999.0
21 21.08 ЮВ 3 4000 м мгла ясно +29.0 +24.0 74 +40 +40 очень
душно
1001.5 1000.0
00 22.08 ЮВ 2 4000 м мгла ясно +27.5 +22.4 74 +36 +36 очень
душно
1000.4 997.2

 

Местоположение метеостанции Навабшах (Пакистан): широта 26.25 долгота 68.37 высота над уровнем моря 38 м.

В архиве по умолчанию представлена погода в Навабшахе за последнюю неделю. Архивные данные за месяц целиком и за предыдущие месяцы, начиная с января 2011 года, Вы можете получить, выбрав интересующий диапазон дат из раскрывающегося списка и нажав кнопку "Ввод!".


*Определитесь, кто Вы:
робот инопланетянин человек

Внимание! Время в таблицах - всемирное. Для получения местного времени необходимо прибавить поправку, которая равна 5 ч.

Смотрите также архив погоды в соседних городах и на ближайших метеорологических станциях:

Погода в Пад Идан (Пакистан) (71 км)
Погода в Хайдарабате (Пакистан) (97 км)
Погода в Мир Пур Кхас (Пакистан) (100 км)
Погода в Мохенджо-Даро (Пакистан) (121 км)
Погода в Сакранде (Пакистан) (125 км)
Погода в Ларкане (Пакистан) (146 км)
Погода в Чоре (Пакистан) (163 км)
Погода в Рохри (Пакистан) (166 км)
Погода в Суккуре (Пакистан) (167 км)
Погода в Даду (Пакистан) (170 км)

Пояснения к столбцам:

Ветер - указаны скорость ветра в м/с - средняя за 10 мин, порывы в срок и между сроками (в фигурных скобках) и направление, откуда дует ветер: С - северный, СВ - северо-восточный, В - восточный, ЮВ - юго-восточный, Ю - южный, ЮЗ - юго-западный, З - западный, СЗ - северо-западный.
Видимость - горизонтальная дальность видимости в метрах или километрах. При видимости от 1 до 10 км при отсутствии осадков обычно наблюдается дымка, при ухудшении видимости до 1 км и менее - туман. В сухую погоду видимость может ухудшаться дымом, пылью или мглою.
Явления - указаны атмосферные явления, наблюдавшиеся в срок или в последний час перед сроком; фигурными скобками обозначены явления, наблюдавшиеся между сроками (за 1-3 часа до срока); квадратными скобками обозначены град или гололедные отложения с указанием их диаметра в мм.
Облачность - указаны через наклонную черту общая и нижняя облачность в баллах и высота нижней границы облаков в метрах; квадратными скобками обозначены формы облаков: Ci - перистые, Cs - перисто-слоистые, Cc - перисто-кучевые, Ac - высококучевые, As - высокослоистые, Sc - слоисто-кучевые, Ns - слоисто-дождевые, Cu - кучевые, Cb - кучево-дождевые. Подробнее классификацию облаков см. в Атласе облаков (PDF).
T - Температура воздуха - температура, измеренная на высоте 2 м над землей.
Td - Температура точки росы - температура, при понижении до которой содержащийся в воздухе водяной пар достигнет насыщения.
f - Относительная влажность воздуха - влажноcть воздуха, измеренная на высоте 2 м над землей.
Te - Эффективная температура - температура, которую ощущает одетый по сезону человек в тени. Характеристика душности погоды. При расчете учитывается влияние влажности воздуха и скорости ветра на теплоощущения человека.
Tes - Эффективная температура на солнце - температура, которую ощущает человек, с поправкой на солнечный нагрев. Характеристика знойности погоды. Зависит от высоты солнца над горизонтом, облачности и скорости ветра. Ночью, в пасмурную погоду, а также при ветре 12 м/с и более поправка равна нулю.
P - Атмосферное давление - приведенное к уровню моря атмосферное давление.
Po - Атмосферное давление - измеренное на уровне метеостанции атмосферное давление.
Tmin - Минимальная температура - минимум температуры воздуха на высоте 2 м над землей.
Tmax - Максимальная температура - максимум температуры воздуха на высоте 2 м над землей.
R - Количество осадков - Количество выпавших осадков за период времени, мм. При наведении курсора мыши на число - период времени, за который выпало указанное количество осадков.
R24 - Количество осадков - Количество выпавших осадков за 24 часа, мм.
S - Снежный покров - Высота снежного покрова, см. При наведении курсора мыши на число - состояние снежного покрова и степень покрытия местности в баллах.